{"data":{"norad_id":67554,"intl_designator":"2026-014Y","name":"STARLINK-36395","alt_names":[],"object_type":"PAYLOAD","status":"ACTIVE","operator":null,"country":"US","launch_date":"2026-01-22","launch_site_code":"AFWTR","launch_vehicle":null,"mission":null,"orbit_class":"UNKNOWN","rcs_meters":null,"size_class":null,"mass_kg":null,"dimensions":null,"purposes":["comms"],"wikipedia_slug":null,"has_3d_model":false,"image_url":null,"decayed_at":null,"tle_current":{"epoch":"2026-09-19T21:11:46.956768Z","epoch_age_seconds":125599,"freshness":"FRESH","line1":"1 67554U 26014Y   26262.88318237  .00012754  00000+0  39639-3 0  9999","line2":"2 67554  97.2843 151.1562 0001301  27.5923 332.5388 15.33469880 38725","mean_motion":15.3346988,"eccentricity":0.0001301,"inclination_deg":97.2843,"raan_deg":151.1562,"arg_perigee_deg":27.5923,"mean_anomaly_deg":332.5388,"bstar":0.00039639,"rev_number":3872,"period_min":93.904681062272,"perigee_km":464.57879694344,"apogee_km":466.35950326369,"semimajor_km":6843.6061501036,"source":"CELESTRAK","updated_at":"2026-09-20T09:00:43.572563Z"}}}